www.pogodaiklimat.ru

Архив погоды в Ардебиле (Иран)

Время
(UTC), дата
03 11.06
06 11.06
09 11.06
12 11.06
15 11.06
18 11.06
21 11.06
00 12.06
03 12.06
06 12.06
09 12.06
12 12.06
15 12.06
18 12.06
21 12.06
00 13.06
03 13.06
06 13.06
09 13.06
12 13.06
15 13.06
18 13.06
21 13.06
00 14.06
03 14.06
06 14.06
09 14.06
12 14.06
15 14.06
18 14.06
21 14.06
00 15.06
03 15.06
06 15.06
09 15.06
12 15.06
15 15.06
18 15.06
21 15.06
00 16.06
03 16.06
06 16.06
09 16.06
12 16.06
15 16.06
18 16.06
21 16.06
00 17.06
03 17.06
06 17.06
09 17.06
12 17.06
15 17.06
18 17.06
21 17.06
00 18.06
Ветер
(напр.,м/с)
Видим. Явления Облачность Т
(С)
Тd
(С)
f
(%)
Тe
(С)
Тes
(С)
Комфортность P
(гПа)
Po
(гПа)
Тmin
(С)
Tmax
(С)
R
(мм)
R24
(мм)
S
(см)
Ю 1 20 км 9/6 1200 м
[Sc Ac cuf]
+14.3 +11.6 84 +15 +15 1008.6 865.2 +11.2 +21.5
З 1 20 км 9/3 1000 м
[Cb calv Ac As Cs]
+20.1 +12.6 62 +23 +29 комфорт 1008.5 865.6
штиль 0 15 км слаб. ливневой дождь 10/8 1200 м
[Cb calv Ac As Cs]
+21.0 +12.4 58 +23 +26 комфорт 1009.7 866.1 0.0
ЮВ 2 15 км в посл. час ливневой снег 9/6 1200 м
[Cb calv Ac As Cs]
+19.9 +10.8 56 +22 +25 комфорт 1009.4 864.9 0.5 0.5
Ю 4 15 км гроза без осадков {ливн. дождь} 9/8 1200 м
[Cb cap Ac As]
+18.4 +12.4 68 +19 +19 1007.6 863.6 +14.1 +24.3 1.5
ЮЗ 3 20 км гроза без осадков 8/6 1200 м
[Cb cap Ac As]
+15.6 +12.5 82 +15 +15 1008.0 864.7 1 1.7
штиль 0 20 км {гроза} ясно +11.9 +9.8 87 +11 +11 1008.9 864.7 1.7
штиль 0 20 км ясно +9.7 +8.3 91 +9 +9 1009.8 864.6 1.7
Ю 2 20 км 1/1 1000 м
[Sc Ac lent]
+12.2 +9.4 83 +11 +13 1011.1 866.0 +9.5 +18.9 1.7
штиль 0 20 км ясно +20.8 +12.7 60 +23 +41 комфорт 1009.1 865.8 1.7
СВ 3 20 км 4/1 1200 м
[Cu med, cong Ci sp]
+23.9 +13.7 53 +26 +41 жарко 1008.2 864.9 1.6
В 4 20 км 10/10 1050 м
[Cb calv]
+20.6 +14.0 66 +23 +23 комфорт 1008.9 864.3 1.2
СВ 5 20 км 9/4 1350 м
[Cb calv Cs]
+19.0 +11.3 61 +20 +20 1009.5 864.9 +12.4 +26.4 0.2
штиль 0 20 км 10/3 1350 м
[Cb calv Cs]
+17.5 +9.9 61 +18 +18 1008.8 865.8
штиль 0 20 км 6/1 1350 м
[Cb calv Cs]
+12.7 +9.1 79 +12 +12 1009.4 865.9
штиль 0 20 км 6/1 1350 м
[Cb calv Cs]
+12.3 +9.3 82 +12 +12 1010.1 865.7
штиль 0 20 км 3/0
[Ci sp]
+17.1 +10.9 67 +17 +19 1010.3 866.6 +9.9 +19.0
СВ 2 20 км 1/1 1200 м
[Sc]
+22.3 +13.1 56 +25 +37 комфорт 1009.2 866.6
СВ 6 20 км 3/1 1200 м
[Cb calv]
+25.0 +11.2 42 +26 +33 жарко 1008.7 865.6
СВ 6 20 км 6/6 1200 м
[Cb calv]
+21.8 +12.6 56 +24 +26 комфорт 1008.9 865.1
С 4 20 км 8/8 1200 м
[Cb calv]
+19.6 +11.9 61 +21 +21 комфорт 1008.5 865.3 +17.8 +26.6
З 8 4000 м слаб. ливневой дождь, в посл. час гроза 10/10 1200 м
[Cb calv]
+16.3 +10.1 67 +15 +15 1010.7 867.5 1 1.0
штиль 0 10 км 8/8 1200 м
[Cb calv]
+14.4 +10.0 75 +14 +14 1008.2 865.5 1.5
штиль 0 10 км {ливн. дождь} 3/3 1200 м
[Sc]
+12.8 +10.3 85 +12 +12 1008.6 864.8 0.5 1.5
СЗ 2 10 км 1/1 1200 м
[Sc]
+16.7 +11.4 71 +17 +19 1008.9 865.5 +10.0 +19.6 1.5
С 3 60 км 4/1 1500 м
[Cu med, cong Ac lent Cs]
+21.7 +12.5 56 +24 +33 комфорт 1008.0 865.2 1.5
СВ 4 40 км осадки на расстоянии 6/5 1200 м
[Cb calv Ac lent Ci ing]
+23.3 +14.3 57 +27 +33 душно 1007.1 864.4 1.5
СВ 5 40 км осадки на расстоянии 9/5 1500 м
[Cb calv Ac lent Ci ing]
+20.6 +15.1 71 +23 +25 комфорт 1007.6 864.0 1.5
СВ 3 40 км осадки на расстоянии 8/5 1500 м
[Cb calv Ac lent Ci ing]
+19.4 +14.8 75 +21 +22 комфорт 1006.0 863.2 +16.2 +23.9 1.5
нст 2 40 км зарница 5/5 1500 м
[Cb cap Ac lent Ci ing]
+16.0 +13.6 86 +16 +16 1007.4 864.7 0.5
нст 2 40 км {гроза} 4/1 1500 м
[Cb calv Ac lent Ci ing]
+15.3 +11.7 79 +15 +15 1006.6 864.1
штиль 0 40 км {гроза} 3/0
[Cs]
+11.3 +9.0 86 +11 +11 1007.4 863.1
штиль 0 40 км туман на расстоянии 6/4 1500 м
[Sc Ac trans Cc]
+11.1 +9.3 89 +10 +12 1008.3 863.6 +9.4 +19.4
штиль 0 40 км 1/1 1350 м
[Cu med, cong]
+21.5 +12.3 56 +24 +40 комфорт 1005.6 863.0
СВ 4 40 км 4/3 1200 м
[Cb calv Ci sp]
+24.0 +12.6 49 +26 +35 жарко 1004.3 862.3
СВ 5 40 км 4/3 1200 м
[Cb calv Ac trans Ci sp]
+24.2 +14.8 56 +27 +31 жарко 1004.0 861.3
СВ 5 40 км 1/1 1200 м
[Cu med, cong Ac lent]
+21.3 +15.8 71 +25 +25 комфорт 1005.2 861.7 +11.1 +25.4
штиль 0 40 км ясно +17.0 +15.3 90 +17 +17 1005.0 862.9
ЮВ 2 20 км ясно +14.5 +13.4 93 +14 +14 1005.2 862.9
штиль 0 20 км ясно +10.7 +8.6 87 +10 +10 1006.8 863.3
штиль 0 40 км ясно +15.8 +11.4 75 +16 +18 1007.0 864.1 +9.8 +21.4
штиль 0 40 км ясно +24.7 +11.3 43 +26 +44 жарко 1006.2 864.4
СВ 5 40 км 1/1 1200 м
[Cu med, cong]
+27.3 +12.1 39 +29 +38 жарко 1005.1 863.5
В 7 40 км 8/6 1200 м
[Cb calv Cs]
+26.0 +13.5 46 +28 +29 жарко 1006.2 863.4
СВ 2 40 км 9/6 1200 м
[Cb calv Cs]
+22.1 +12.6 55 +25 +25 комфорт 1006.2 863.6 +16.9 +28.0
ЮЗ 1 40 км 8/4 1200 м
[Cb calv Cs]
+20.0 +11.7 59 +23 +23 комфорт 1006.8 865.6
З 3 40 км 6/1 1350 м
[Cb calv Cs]
+19.7 +11.7 60 +21 +21 комфорт 1008.0 867.1
ЮВ 2 40 км 5/0
[Cs]
+15.4 +9.9 70 +15 +15 1008.3 866.1
СВ 1 40 км 6/1 1050 м
[Sc Ac cuf]
+19.0 +11.3 61 +21 +22 комфорт 1009.4 867.0 +15.0 +22.2
нст 2 70 км 4/1 1500 м
[Cu hum Ac lent Cc]
+25.2 +11.4 42 +27 +37 жарко 1009.0 867.6
нст 2 70 км 3/3 1500 м
[Cb calv Ac lent Cc]
+28.6 +11.6 35 +29 +44 жарко 1008.0 867.4
СВ 7 60 км осадки на расстоянии 6/4 1350 м
[Cb calv Ac cuf Ci ing]
+27.5 +14.8 46 +30 +32 жарко 1008.2 866.6
СВ 5 60 км 3/3 1500 м
[Cb calv Ac cuf Ci ing]
+24.3 +16.3 61 +28 +28 душно 1008.0 866.6 +19.0 +29.3
штиль 0 70 км ясно +19.1 +15.1 78 +20 +20 1008.9 867.5
штиль 0 70 км туман на расстоянии ясно +17.1 +13.4 79 +17 +17 1008.8 867.6
штиль 0 70 км туман на расстоянии ясно +13.5 +11.2 86 +13 +13 1010.4 867.8
Местоположение метеостанции Ардебиль (Иран): широта 38.25 долгота 48.28 высота над уровнем моря 1332 м.
В архиве по умолчанию представлена погода в Ардебиле за последнюю неделю. Архивные данные за месяц целиком и за предыдущие месяцы, начиная с января 2011 года, Вы можете получить, выбрав интересующий диапазон дат из раскрывающегося списка и нажав кнопку "Найти!".
*Определитесь, кто Вы:
Внимание! Время в таблицах - всемирное. Для получения местного времени необходимо прибавить поправку, которая равна 3.5 ч.
Некоторые строки с данными для отдельных станций могут быть выделены курсивом. Это означает, что фактические данные отсутствуют по различным причинам, а приведенные значения являются расчетными модельными данными для данного пункта наблюдений.
Смотрите также архив погоды в соседних городах и на ближайших метеорологических станциях:
Партнеры нашего сайта:      
Пояснения к столбцам:
  • Ветер - указаны скорость ветра в м/с - средняя за 10 мин, порывы в срок и между сроками (в фигурных скобках) и направление, откуда дует ветер: С - северный,
  • СВ - северо-восточный, В - восточный, ЮВ - юго-восточный, Ю - южный, ЮЗ - юго-западный, З - западный, СЗ - северо-западный.
  • Видимость - горизонтальная дальность видимости в метрах или километрах. При видимости от 1 до 10 км при отсутствии осадков обычно наблюдается дымка, при ухудшении видимости до 1 км и менее - туман. В сухую погоду видимость может ухудшаться дымом, пылью или мглою.
  • Явления - указаны атмосферные явления, наблюдавшиеся в срок или в последний час перед сроком; фигурными скобками обозначены явления, наблюдавшиеся между сроками (за 1-3 часа до срока); квадратными скобками обозначены град или гололедные отложения с указанием их диаметра в мм.
  • Облачность - указаны через наклонную черту общая и нижняя облачность в баллах и высота нижней границы облаков в метрах; квадратными скобками обозначены формы облаков: Ci - перистые, Cs - перисто-слоистые, Cc - перисто-кучевые, Ac - высококучевые, As - высокослоистые, Sc - слоисто-кучевые, Ns - слоисто-дождевые, Cu - кучевые, Cb - кучево-дождевые. Подробнее классификацию облаков см. в Атласе облаков (PDF).
  • T - Температура воздуха - температура, измеренная на высоте 2 м над землей.
  • Td - Температура точки росы - температура, при понижении до которой содержащийся в воздухе водяной пар достигнет насыщения.
  • f - Относительная влажность воздуха - влажноcть воздуха, измеренная на высоте 2 м над землей.
  • Te - Эффективная температура - температура, которую ощущает одетый по сезону человек в тени. Характеристика душности погоды. При расчете учитывается влияние влажности воздуха и скорости ветра на теплоощущения человека.
  • Tes - Эффективная температура на солнце - температура, которую ощущает человек, с поправкой на солнечный нагрев. Характеристика знойности погоды. Зависит от высоты солнца над горизонтом, облачности и скорости ветра. Ночью, в пасмурную погоду, а также при ветре 12 м/с и более поправка равна нулю.
  • P - Атмосферное давление - приведенное к уровню моря атмосферное давление.
  • Po - Атмосферное давление - измеренное на уровне метеостанции атмосферное давление.
  • Tmin - Минимальная температура - минимум температуры воздуха на высоте 2 м над землей.
  • Tmax - Максимальная температура - максимум температуры воздуха на высоте 2 м над землей.
  • R - Количество осадков - Количество выпавших осадков за период времени, мм. При наведении курсора мыши на число - период времени, за который выпало указанное количество осадков.
  • R24 - Количество осадков - Количество выпавших осадков за 24 часа, мм.
  • S - Снежный покров - Высота снежного покрова, см. При наведении курсора мыши на число - состояние снежного покрова и степень покрытия местности в баллах.